• In Österreich
  • Länderverzeichnis
  • Für 7 Tage
  • Wassertemperatur
  • Satellitenkarten
  • Wetterkarte
  • News
  • Widgets
  • user-avatar
    Anmelden

    Stündliche Wetter Chinsali

    Heute, 23 Oktober, Dienstag

    Zeit Temperatur Niederschläge Wind Luftdruck Luftfeuchtigkeit
    00:00 +19°C° 0 mm 4 m/S 650 mmHg 64%
    01:00 +18°C° 0 mm 4 m/S 649 mmHg 64%
    02:00 +17°C° 0 mm 4 m/S 649 mmHg 65%
    03:00 +17°C° 0 mm 4 m/S 649 mmHg 66%
    04:00 +16°C° 0 mm 5 m/S 649 mmHg 67%
    05:00 +16°C° 0 mm 5 m/S 649 mmHg 68%
    06:00 +17°C° 0 mm 5 m/S 650 mmHg 64%
    07:00 +19°C° 0 mm 5 m/S 651 mmHg 60%
    08:00 +20°C° 0 mm 6 m/S 652 mmHg 54%
    09:00 +22°C° 0 mm 5 m/S 652 mmHg 49%
    10:00 +25°C° 0 mm 5 m/S 652 mmHg 43%
    11:00 +27°C° 0 mm 5 m/S 651 mmHg 38%
    12:00 +28°C° 0 mm 5 m/S 651 mmHg 35%
    13:00 +29°C° 0 mm 5 m/S 650 mmHg 32%
    14:00 +30°C° 0 mm 5 m/S 650 mmHg 29%
    15:00 +29°C° 0 mm 5 m/S 649 mmHg 29%
    16:00 +29°C° 0 mm 5 m/S 649 mmHg 30%
    17:00 +28°C° 0 mm 4 m/S 648 mmHg 30%
    18:00 +26°C° 0 mm 4 m/S 649 mmHg 33%
    19:00 +25°C° 0 mm 4 m/S 649 mmHg 36%
    20:00 +22°C° 0 mm 4 m/S 649 mmHg 38%
    21:00 +21°C° 0 mm 4 m/S 649 mmHg 40%
    22:00 +20°C° 0 mm 4 m/S 649 mmHg 42%
    23:00 +19°C° 0 mm 4 m/S 649 mmHg 43%

    Morgen, 24 Oktober, Mittwoch

    Zeit Temperatur Niederschläge Wind Luftdruck Luftfeuchtigkeit
    00:00 +19°C° 0 mm 4 m/S 649 mmHg 46%
    01:00 +18°C° 0 mm 4 m/S 649 mmHg 50%
    02:00 +17°C° 0 mm 4 m/S 648 mmHg 53%
    03:00 +17°C° 0 mm 4 m/S 648 mmHg 56%
    04:00 +17°C° 0 mm 4 m/S 648 mmHg 60%
    05:00 +15°C° 0 mm 4 m/S 648 mmHg 63%
    06:00 +18°C° 0 mm 4 m/S 649 mmHg 60%
    07:00 +19°C° 0 mm 4 m/S 650 mmHg 57%
    08:00 +20°C° 0 mm 5 m/S 650 mmHg 54%
    09:00 +22°C° 0 mm 5 m/S 650 mmHg 47%
    10:00 +26°C° 0 mm 4 m/S 650 mmHg 41%
    11:00 +28°C° 0 mm 4 m/S 650 mmHg 34%
    12:00 +29°C° 0 mm 4 m/S 650 mmHg 31%
    13:00 +30°C° 0 mm 4 m/S 649 mmHg 28%
    14:00 +32°C° 0 mm 4 m/S 649 mmHg 25%
    15:00 +30°C° 0 mm 4 m/S 648 mmHg 26%
    16:00 +30°C° 0 mm 4 m/S 648 mmHg 27%
    17:00 +29°C° 0 mm 4 m/S 647 mmHg 27%
    18:00 +28°C° 0 mm 4 m/S 648 mmHg 30%
    19:00 +26°C° 0 mm 4 m/S 648 mmHg 33%
    20:00 +23°C° 0 mm 4 m/S 648 mmHg 36%
    21:00 +22°C° 0 mm 4 m/S 648 mmHg 38%
    22:00 +21°C° 0 mm 4 m/S 648 mmHg 41%
    23:00 +20°C° 0 mm 4 m/S 649 mmHg 43%

    übermorgen, 25 Oktober, Donnerstag

    Zeit Temperatur Niederschläge Wind Luftdruck Luftfeuchtigkeit
    00:00 +20°C° 0 mm 4 m/S 648 mmHg 45%
    01:00 +19°C° 0 mm 3 m/S 648 mmHg 47%
    02:00 +19°C° 0 mm 3 m/S 647 mmHg 49%
    03:00 +18°C° 0 mm 3 m/S 647 mmHg 51%
    04:00 +18°C° 0 mm 3 m/S 647 mmHg 53%
    05:00 +18°C° 0 mm 3 m/S 647 mmHg 54%
    06:00 +19°C° 0 mm 3 m/S 648 mmHg 49%
    07:00 +21°C° 0 mm 4 m/S 649 mmHg 43%
    08:00 +23°C° 0 mm 4 m/S 650 mmHg 38%
    09:00 +26°C° 0 mm 4 m/S 650 mmHg 34%
    10:00 +29°C° 0 mm 4 m/S 650 mmHg 30%
    11:00 +32°C° 0 mm 4 m/S 650 mmHg 26%
    12:00 +32°C° 0 mm 4 m/S 650 mmHg 25%
    13:00 +33°C° 0 mm 4 m/S 649 mmHg 23%
    14:00 +34°C° 0 mm 4 m/S 648 mmHg 22%
    15:00 +33°C° 0 mm 4 m/S 648 mmHg 26%
    16:00 +30°C° 0 mm 4 m/S 647 mmHg 29%
    17:00 +29°C° 0 mm 4 m/S 647 mmHg 33%
    18:00 +27°C° 0 mm 3 m/S 648 mmHg 37%
    19:00 +26°C° 0 mm 3 m/S 648 mmHg 41%
    20:00 +25°C° 0 mm 3 m/S 648 mmHg 45%
    21:00 +24°C° 0 mm 3 m/S 649 mmHg 48%
    22:00 +24°C° 0 mm 3 m/S 649 mmHg 50%
    23:00 +22°C° 0 mm 3 m/S 649 mmHg 53%

    26 Oktober, Freitag

    Zeit Temperatur Niederschläge Wind Luftdruck Luftfeuchtigkeit
    00:00 +21°C° 0 mm 2 m/S 648 mmHg 56%
    01:00 +21°C° 0 mm 2 m/S 648 mmHg 58%
    02:00 +20°C° 0 mm 2 m/S 647 mmHg 61%
    03:00 +20°C° 0 mm 2 m/S 647 mmHg 62%
    04:00 +20°C° 0 mm 2 m/S 647 mmHg 63%
    05:00 +20°C° 0 mm 2 m/S 647 mmHg 65%
    06:00 +21°C° 0 mm 2 m/S 648 mmHg 59%
    07:00 +24°C° 0 mm 3 m/S 649 mmHg 54%
    08:00 +25°C° 0 mm 4 m/S 650 mmHg 49%
    09:00 +27°C° 0 mm 3 m/S 650 mmHg 44%
    10:00 +28°C° 0 mm 3 m/S 650 mmHg 40%
    11:00 +29°C° 0 mm 3 m/S 650 mmHg 36%
    12:00 +31°C° 0 mm 3 m/S 649 mmHg 32%
    13:00 +33°C° 0 mm 3 m/S 649 mmHg 29%
    14:00 +34°C° 0 mm 3 m/S 648 mmHg 26%
    15:00 +32°C° 0 mm 2 m/S 648 mmHg 28%
    16:00 +31°C° 0 mm 2 m/S 648 mmHg 31%
    17:00 +29°C° 0 mm 2 m/S 647 mmHg 33%
    18:00 +28°C° 0.1 mm 2 m/S 647 mmHg 38%
    19:00 +26°C° 0.1 mm 3 m/S 648 mmHg 43%
    20:00 +25°C° 0.1 mm 3 m/S 648 mmHg 48%
    21:00 +24°C° 0.1 mm 3 m/S 648 mmHg 53%
    22:00 +22°C° 0.1 mm 3 m/S 648 mmHg 57%
    23:00 +21°C° 0.1 mm 3 m/S 648 mmHg 62%

    27 Oktober, Samstag

    Zeit Temperatur Niederschläge Wind Luftdruck Luftfeuchtigkeit
    00:00 +21°C° 0 mm 3 m/S 648 mmHg 65%
    01:00 +20°C° 0 mm 2 m/S 647 mmHg 67%
    02:00 +20°C° 0 mm 2 m/S 647 mmHg 70%
    03:00 +19°C° 0 mm 2 m/S 647 mmHg 71%
    04:00 +19°C° 0 mm 2 m/S 647 mmHg 73%
    05:00 +19°C° 0 mm 1 m/S 647 mmHg 75%
    06:00 +21°C° 0 mm 2 m/S 648 mmHg 65%
    07:00 +24°C° 0 mm 3 m/S 649 mmHg 55%
    08:00 +26°C° 0 mm 3 m/S 650 mmHg 44%
    09:00 +28°C° 0 mm 3 m/S 650 mmHg 38%
    10:00 +30°C° 0 mm 3 m/S 650 mmHg 32%
    11:00 +33°C° 0 mm 3 m/S 650 mmHg 26%
    12:00 +34°C° 0 mm 3 m/S 649 mmHg 25%
    13:00 +35°C° 0 mm 3 m/S 648 mmHg 23%
    14:00 +36°C° 0 mm 3 m/S 648 mmHg 21%
    15:00 +35°C° 0 mm 3 m/S 647 mmHg 22%
    16:00 +34°C° 0 mm 3 m/S 647 mmHg 23%
    17:00 +33°C° 0 mm 3 m/S 647 mmHg 24%
    18:00 +32°C° 0 mm 4 m/S 647 mmHg 27%
    19:00 +30°C° 0 mm 4 m/S 647 mmHg 29%
    20:00 +28°C° 0 mm 4 m/S 648 mmHg 31%
    21:00 +27°C° 0 mm 4 m/S 648 mmHg 36%
    22:00 +26°C° 0 mm 3 m/S 647 mmHg 40%
    23:00 +24°C° 0 mm 3 m/S 647 mmHg 44%

    28 Oktober, Sonntag

    Zeit Temperatur Niederschläge Wind Luftdruck Luftfeuchtigkeit
    00:00 +24°C° 0 mm 3 m/S 647 mmHg 49%
    01:00 +23°C° 0 mm 2 m/S 646 mmHg 53%
    02:00 +21°C° 0 mm 2 m/S 646 mmHg 58%
    03:00 +21°C° 0 mm 2 m/S 646 mmHg 59%
    04:00 +20°C° 0 mm 2 m/S 646 mmHg 61%
    05:00 +20°C° 0 mm 2 m/S 646 mmHg 63%
    06:00 +23°C° 0 mm 2 m/S 647 mmHg 56%
    07:00 +25°C° 0 mm 3 m/S 648 mmHg 49%
    08:00 +27°C° 0 mm 3 m/S 649 mmHg 42%
    09:00 +29°C° 0 mm 3 m/S 649 mmHg 36%
    10:00 +31°C° 0 mm 3 m/S 649 mmHg 31%
    11:00 +34°C° 0 mm 3 m/S 649 mmHg 26%
    12:00 +35°C° 0 mm 3 m/S 648 mmHg 24%
    13:00 +35°C° 0 mm 3 m/S 647 mmHg 22%
    14:00 +36°C° 0 mm 3 m/S 647 mmHg 21%
    15:00 +35°C° 0 mm 3 m/S 646 mmHg 22%
    16:00 +34°C° 0 mm 3 m/S 646 mmHg 24%
    17:00 +33°C° 0 mm 3 m/S 646 mmHg 26%
    18:00 +30°C° 0 mm 3 m/S 646 mmHg 29%
    19:00 +29°C° 0 mm 3 m/S 646 mmHg 31%
    20:00 +27°C° 0 mm 3 m/S 647 mmHg 33%
    21:00 +26°C° 0 mm 3 m/S 647 mmHg 36%
    22:00 +25°C° 0 mm 3 m/S 647 mmHg 39%
    23:00 +25°C° 0 mm 3 m/S 646 mmHg 41%

    29 Oktober, Montag

    Zeit Temperatur Niederschläge Wind Luftdruck Luftfeuchtigkeit
    00:00 +24°C° 0 mm 3 m/S 646 mmHg 45%
    01:00 +22°C° 0 mm 3 m/S 645 mmHg 49%
    02:00 +21°C° 0 mm 2 m/S 645 mmHg 53%
    03:00 +21°C° 0 mm 2 m/S 645 mmHg 55%
    04:00 +20°C° 0 mm 2 m/S 645 mmHg 58%
    05:00 +21°C° 0 mm 1 m/S 646 mmHg 60%
    06:00 +23°C° 0 mm 2 m/S 647 mmHg 54%
    07:00 +25°C° 0 mm 2 m/S 648 mmHg 48%
    08:00 +27°C° 0 mm 2 m/S 649 mmHg 41%
    09:00 +29°C° 0 mm 2 m/S 649 mmHg 35%
    10:00 +31°C° 0 mm 2 m/S 649 mmHg 29%
    11:00 +35°C° 0 mm 2 m/S 649 mmHg 22%
    12:00 +35°C° 0 mm 2 m/S 648 mmHg 20%
    13:00 +36°C° 0 mm 3 m/S 647 mmHg 18%
    14:00 +37°C° 0 mm 3 m/S 647 mmHg 15%
    15:00 +36°C° 0 mm 3 m/S 646 mmHg 16%
    16:00 +35°C° 0 mm 3 m/S 646 mmHg 17%
    17:00 +34°C° 0 mm 3 m/S 645 mmHg 17%
    18:00 +31°C° 0 mm 3 m/S 646 mmHg 20%
    19:00 +29°C° 0 mm 2 m/S 646 mmHg 22%
    20:00 +27°C° 0 mm 2 m/S 646 mmHg 24%
    21:00 +26°C° 0 mm 2 m/S 646 mmHg 26%
    22:00 +25°C° 0 mm 2 m/S 646 mmHg 28%
    23:00 +25°C° 0 mm 2 m/S 646 mmHg 29%
    Mehr zeigen